User: anonymous   Login
Location: Unspecified
(0.0000°N, 0.0000°E)
Time: 02:09:55
(UTC+00:00)
Language:

EO-79 - Orbit

View from above orbital plane
View from above orbital plane
View from above satellite
View from above satellite

Ground track
Ground track

The orbit data is extracted from the following two-line orbital elements,

1 40025U 14033R   18021.21476842  .00000274  00000-0  35437-4 0  9997
2 40025  97.9094 296.8891 0011510 313.6544  46.3718 14.88620642194923
Epoch (UTC): 21 January 2018 05:09:15
Eccentricity: 0.0011510
inclination: 97.9094°
perigee height: 594 km
apogee height: 610 km
right ascension of ascending node: 296.8891°
argument of perigee: 313.6544°
revolutions per day: 14.88620642
mean anomaly at epoch: 46.3718°
orbit number at epoch: 19492

The dashed part of the orbit path shows where the satellite is in the earth's shadow,  

DLR